This demonstration page uses our WeatherBlox Daily Observations layout. Learn more.

Left ArrowRight Arrow

39.12711, -84.51439

Hourly Observations for May 29, 2022

Temp ( °F °C ) Dew Point ( °F °C ) Humidity (%) Winds ( mph kmh ) Pressure ( in mb ) Visibility ( mi km ) Precip ( " mm )
12:53 am 00:53 Clear with Mist and Fog 61 16.1 60 15.6 97 97 Calm 29.97 1015 6 10 0.00 0.00
1:42 am 01:42 Clear with Mist and Fog 58 14.4 58 14.4 100 100 Calm 29.98 1015 2 2 0.00 0.00
1:49 am 01:49 Mostly Cloudy with Mist and Fog 57 14 57 14 100 100 Calm 29.98 1015 1 1 0.00 0.00
1:53 am 01:53 Mostly Cloudy with Fog 58 14.4 58 14.4 100 100 Calm 29.98 1015 0 0 0.00 0.00
2:04 am 02:04 Mostly Cloudy with Mist and Fog 58 14.4 58 14.4 100 100 Calm 29.98 1015 1 2 0.00 0.00
2:14 am 02:14 Mostly Cloudy with Fog 57 13.9 57 13.9 100 100 Calm 29.98 1015 0 0 0.00 0.00
2:23 am 02:23 Mostly Cloudy with Fog 57 13.9 57 13.9 100 100 Calm 29.98 1015 0 0 0.00 0.00
2:29 am 02:29 Mostly Cloudy with Mist and Fog 57 13.9 57 13.9 100 100 Calm 29.98 1015 1 2 0.00 0.00
2:37 am 02:37 Mostly Clear with Mist and Fog 57 13.9 57 13.9 100 100 Calm 29.97 1015 1 2 0.00 0.00
2:53 am 02:53 Clear with Mist and Fog 57 13.9 57 13.9 100 100 Calm 29.97 1015 1 2 0.00 0.00
3:00 am 03:00 Mostly Cloudy with Mist and Fog 57 13.9 57 13.9 100 100 Calm 29.98 1015 1 1 0.00 0.00
3:13 am 03:13 Mostly Clear with Mist and Fog 57 13.9 57 13.9 100 100 Calm 29.98 1015 1 2 0.00 0.00
3:20 am 03:20 Mostly Clear with Mist and Fog 56 13.3 56 13.3 100 100 Calm 29.98 1015 3 5 0.00 0.00
3:35 am 03:35 Mostly Cloudy with Mist and Fog 56 13.3 56 13.3 100 100 Calm 29.98 1015 1 2 0.00 0.00
3:42 am 03:42 Partly Cloudy with Fog 57 13.9 57 13.9 100 100 Calm 29.98 1015 1 1 0.00 0.00
3:49 am 03:49 Mostly Cloudy with Fog 55 13 55 13 100 100 Calm 29.98 1015 1 1 0.00 0.00
3:53 am 03:53 Mostly Cloudy with Fog 56 13.3 56 13.3 100 100 Calm 29.98 1015 0 0 0.00 0.00
4:33 am 04:33 Mostly Cloudy with Fog 55 12.8 55 12.8 100 100 Calm 29.99 1016 N/A 0.00 0.00
4:53 am 04:53 Mostly Cloudy with Fog 56 13.3 56 13.3 100 100 Calm 29.98 1015 0 0 0.00 0.00
5:21 am 05:21 Mostly Cloudy with Fog 55 12.8 55 12.8 100 100 Calm 29.99 1016 N/A 0.00 0.00
5:31 am 05:31 Mostly Cloudy with Fog 55 12.8 55 12.8 100 100 Calm 29.99 1016 0 0 0.00 0.00
5:53 am 05:53 Mostly Cloudy with Fog 56 13.3 56 13.3 100 100 Calm 29.99 1016 0 0 0.00 0.00
6:24 am 06:24 Mostly Cloudy with Fog 54 12.2 54 12.2 100 100 Calm 30.00 1016 N/A 0.00 0.00
6:53 am 06:53 Mostly Cloudy with Fog 56 13.3 56 13.3 100 100 Calm 30.01 1016 N/A 0.00 0.00
7:53 am 07:53 Mostly Cloudy with Fog 59 15 59 15 100 100 Calm 30.01 1016 N/A 0.00 0.00
8:01 am 08:01 Mostly Cloudy with Fog 60 15.6 60 15.6 100 100 Calm 30.02 1016 0 0 0.00 0.00
8:06 am 08:06 Partly Cloudy with Fog 60 15.6 60 15.6 100 100 Calm 30.02 1016 1 1 0.00 0.00
8:11 am 08:11 Sunny with Mist and Fog 61 16.1 61 16.1 100 100 Calm 30.03 1017 3 5 0.00 0.00
8:53 am 08:53 Sunny 63 17.2 63 17.2 100 100 SSW 6 9 30.03 1017 10 16 0.00 0.00
9:53 am 09:53 Sunny 69 20.6 63 17.2 81 81 SSW 6 9 30.04 1017 10 16 0.00 0.00
10:53 am 10:53 Sunny 73 22.8 64 17.8 74 74 S 10 17 30.01 1016 10 16 0.00 0.00
11:53 am 11:53 Partly Cloudy 75 23.9 64 17.8 69 69 S 10 17 30.01 1016 10 16 0.00 0.00
12:53 pm 12:53 Sunny 77 25 63 17.2 62 62 SSE 7 11 30.00 1016 10 16 0.00 0.00
1:53 pm 13:53 Mostly Sunny 78 25.6 64 17.8 62 62 S 8 13 29.99 1016 10 16 0.00 0.00
2:53 pm 14:53 Partly Cloudy 80 26.7 63 17.2 56 56 SW 6 9 29.97 1015 10 16 0.00 0.00
3:53 pm 15:53 Partly Cloudy 81 27.2 64 17.8 57 57 Calm 29.96 1015 10 16 0.00 0.00
4:53 pm 16:53 Mostly Sunny 81 27.2 64 17.8 57 57 SE 9 15 29.96 1015 10 16 0.00 0.00
5:53 pm 17:53 Partly Cloudy 81 27.2 64 17.8 57 57 S 10 17 29.95 1014 10 16 0.00 0.00
6:53 pm 18:53 Sunny 79 26.1 65 18.3 62 62 S 8 13 29.96 1014 10 16 0.00 0.00
7:53 pm 19:53 Sunny 77 25 63 17.2 62 62 SSE 6 9 29.96 1015 10 16 0.00 0.00
8:53 pm 20:53 Sunny 74 23.3 63 17.2 69 69 Calm 29.97 1015 10 16 0.00 0.00
9:53 pm 21:53 Clear 68 20 65 18.3 90 90 Calm 29.98 1015 10 16 0.00 0.00
10:53 pm 22:53 Clear 65 18.3 63 17.2 93 93 Calm 29.99 1016 10 16 0.00 0.00
11:53 pm 23:53 Clear 63 17.2 63 17.2 100 100 Calm 29.99 1016 10 16 0.00 0.00

Powered by AerisWeather